TimeEDT,TemperatureF,Dew PointF,Humidity,Sea Level PressureIn,VisibilityMPH,Wind Direction,Wind SpeedMPH,Gust SpeedMPH,PrecipitationIn,Events,Conditions,WindDirDegrees,DateUTC
12:15 AM,77.0,77.0,100,29.83,10.0,SE,5.8,-,N/A,,Scattered Clouds,140,2012-10-02 04:15:00
12:35 AM,77.0,77.0,100,29.83,10.0,SSE,5.8,-,N/A,,Clear,150,2012-10-02 04:35:00
12:55 AM,77.0,77.0,100,29.82,10.0,SSE,5.8,-,N/A,Thunderstorm,Mostly Cloudy,150,2012-10-02 04:55:00
1:15 AM,77.0,77.0,100,29.82,10.0,SSE,5.8,-,N/A,,Mostly Cloudy,150,2012-10-02 05:15:00
1:35 AM,77.0,77.0,100,29.82,10.0,SE,4.6,-,N/A,,Mostly Cloudy,140,2012-10-02 05:35:00
1:55 AM,77.0,77.0,100,29.82,10.0,SSE,6.9,-,N/A,Thunderstorm,Mostly Cloudy,150,2012-10-02 05:55:00
2:15 AM,77.0,77.0,100,29.82,10.0,SE,5.8,-,N/A,Thunderstorm,Scattered Clouds,140,2012-10-02 06:15:00
2:35 AM,77.0,77.0,100,29.81,10.0,SSE,9.2,-,N/A,Thunderstorm,Mostly Cloudy,160,2012-10-02 06:35:00
2:55 AM,77.0,77.0,100,29.82,3.0,South,18.4,24.2,0.01,Thunderstorm,Mostly Cloudy,170,2012-10-02 06:55:00
3:15 AM,73.4,73.4,100,29.80,10.0,SSE,5.8,-,N/A,,Mostly Cloudy,160,2012-10-02 07:15:00
3:35 AM,73.4,73.4,100,29.81,10.0,SSE,6.9,-,N/A,,Clear,160,2012-10-02 07:35:00
3:55 AM,75.2,75.2,100,29.80,10.0,SSE,4.6,-,N/A,Rain,Rain,150,2012-10-02 07:55:00
4:15 AM,75.2,75.2,100,29.80,10.0,South,3.5,-,0.01,,Clear,170,2012-10-02 08:15:00
4:35 AM,75.2,75.2,100,29.80,7.0,Calm,Calm,-,0.01,Rain,Rain,0,2012-10-02 08:35:00
4:55 AM,73.4,73.4,100,29.80,7.0,SE,4.6,-,0.01,,Scattered Clouds,140,2012-10-02 08:55:00
5:15 AM,75.2,75.2,100,29.79,7.0,Calm,Calm,-,N/A,,Clear,0,2012-10-02 09:15:00
5:35 AM,75.2,75.2,100,29.80,7.0,Calm,Calm,-,N/A,,Scattered Clouds,0,2012-10-02 09:35:00
5:55 AM,75.2,75.2,100,29.80,7.0,SSE,4.6,-,N/A,,Scattered Clouds,160,2012-10-02 09:55:00
6:15 AM,77.0,77.0,100,29.81,10.0,South,4.6,-,N/A,,Clear,170,2012-10-02 10:15:00
6:35 AM,77.0,77.0,100,29.81,10.0,South,4.6,-,N/A,,Scattered Clouds,170,2012-10-02 10:35:00
6:55 AM,75.2,75.2,100,29.81,7.0,Calm,Calm,-,N/A,Thunderstorm,Mostly Cloudy,0,2012-10-02 10:55:00
7:15 AM,75.2,75.2,100,29.83,7.0,Calm,Calm,-,N/A,Thunderstorm,Scattered Clouds,0,2012-10-02 11:15:00
7:35 AM,75.2,75.2,100,29.84,7.0,SSE,3.5,-,N/A,Thunderstorm,Mostly Cloudy,160,2012-10-02 11:35:00
7:55 AM,75.2,75.2,100,29.85,10.0,South,4.6,-,N/A,,Scattered Clouds,190,2012-10-02 11:55:00
8:15 AM,77.0,77.0,100,29.86,4.0,SSW,9.2,-,0.03,Rain,Rain,210,2012-10-02 12:15:00
8:35 AM,75.2,75.2,100,29.86,4.0,Calm,Calm,-,0.08,Rain,Light Rain,0,2012-10-02 12:35:00
8:55 AM,77.0,77.0,100,29.86,10.0,Calm,Calm,-,0.08,,Scattered Clouds,0,2012-10-02 12:55:00
9:15 AM,78.8,78.8,100,29.87,10.0,South,4.6,-,N/A,,Scattered Clouds,190,2012-10-02 13:15:00
9:35 AM,80.6,80.6,100,29.87,10.0,SSW,4.6,-,N/A,,Scattered Clouds,200,2012-10-02 13:35:00
9:55 AM,82.4,80.6,94,29.88,10.0,SSW,5.8,-,N/A,,Mostly Cloudy,210,2012-10-02 13:55:00
10:15 AM,80.6,78.8,94,29.88,10.0,SW,6.9,-,N/A,,Mostly Cloudy,220,2012-10-02 14:15:00
10:35 AM,82.4,80.6,94,29.89,10.0,SSW,8.1,-,N/A,,Scattered Clouds,200,2012-10-02 14:35:00
10:55 AM,84.2,78.8,84,29.89,10.0,South,4.6,-,N/A,,Scattered Clouds,190,2012-10-02 14:55:00
11:15 AM,82.4,77.0,84,29.89,10.0,SSW,8.1,18.4,N/A,,Mostly Cloudy,210,2012-10-02 15:15:00
11:35 AM,86.0,77.0,74,29.90,10.0,South,15.0,20.7,N/A,,Mostly Cloudy,190,2012-10-02 15:35:00
11:55 AM,86.0,77.0,74,29.89,10.0,South,11.5,17.3,N/A,,Scattered Clouds,180,2012-10-02 15:55:00
12:15 PM,86.0,77.0,74,29.89,10.0,South,12.7,17.3,N/A,,Mostly Cloudy,180,2012-10-02 16:15:00
12:35 PM,86.0,77.0,74,29.89,10.0,South,13.8,17.3,N/A,,Scattered Clouds,180,2012-10-02 16:35:00
12:55 PM,86.0,75.2,70,29.88,10.0,South,12.7,18.4,N/A,,Scattered Clouds,170,2012-10-02 16:55:00
1:15 PM,86.0,77.0,74,29.88,10.0,South,10.4,20.7,N/A,,Scattered Clouds,190,2012-10-02 17:15:00
1:35 PM,86.0,77.0,74,29.88,10.0,South,9.2,19.6,N/A,,Scattered Clouds,190,2012-10-02 17:35:00
1:55 PM,86.0,75.2,70,29.88,10.0,SSW,15.0,19.6,N/A,,Scattered Clouds,210,2012-10-02 17:55:00
2:15 PM,86.0,75.2,70,29.88,10.0,South,11.5,20.7,N/A,,Mostly Cloudy,190,2012-10-02 18:15:00
2:35 PM,86.0,75.2,70,29.88,10.0,SSW,12.7,21.9,N/A,,Scattered Clouds,200,2012-10-02 18:35:00
2:55 PM,86.0,75.2,70,29.88,10.0,South,12.7,19.6,N/A,,Mostly Cloudy,170,2012-10-02 18:55:00
3:15 PM,86.0,75.2,70,29.88,10.0,South,11.5,18.4,N/A,,Scattered Clouds,180,2012-10-02 19:15:00
3:35 PM,86.0,77.0,74,29.88,10.0,South,8.1,18.4,N/A,,Scattered Clouds,190,2012-10-02 19:35:00
3:55 PM,86.0,75.2,70,29.89,10.0,SSW,15.0,18.4,N/A,,Scattered Clouds,200,2012-10-02 19:55:00
4:15 PM,84.2,77.0,79,29.90,10.0,South,12.7,-,N/A,,Mostly Cloudy,180,2012-10-02 20:15:00
4:35 PM,84.2,77.0,79,29.90,10.0,South,12.7,18.4,N/A,Thunderstorm,Mostly Cloudy,190,2012-10-02 20:35:00
4:55 PM,82.4,77.0,84,29.90,10.0,South,10.4,-,N/A,Thunderstorm,Mostly Cloudy,180,2012-10-02 20:55:00
5:15 PM,82.4,77.0,84,29.91,10.0,South,12.7,17.3,N/A,Thunderstorm,Scattered Clouds,190,2012-10-02 21:15:00
5:35 PM,82.4,77.0,84,29.91,10.0,South,8.1,-,N/A,,Scattered Clouds,190,2012-10-02 21:35:00
5:55 PM,80.6,77.0,89,29.92,10.0,South,8.1,-,N/A,,Mostly Cloudy,170,2012-10-02 21:55:00
6:15 PM,80.6,78.8,94,29.92,10.0,South,8.1,-,N/A,,Mostly Cloudy,180,2012-10-02 22:15:00
6:35 PM,80.6,78.8,94,29.93,10.0,SSE,8.1,-,N/A,,Mostly Cloudy,160,2012-10-02 22:35:00
6:55 PM,78.8,78.8,100,29.93,10.0,SSW,6.9,-,N/A,,Mostly Cloudy,200,2012-10-02 22:55:00
7:15 PM,78.8,78.8,100,29.94,10.0,South,5.8,-,N/A,,Scattered Clouds,180,2012-10-02 23:15:00
7:35 PM,78.8,78.8,100,29.94,10.0,South,3.5,-,N/A,,Clear,180,2012-10-02 23:35:00
8:15 PM,78.8,78.8,100,29.96,10.0,South,5.8,-,N/A,,Clear,170,2012-10-03 00:15:00
8:35 PM,77.0,77.0,100,29.97,10.0,South,6.9,-,N/A,,Clear,190,2012-10-03 00:35:00
8:55 PM,77.0,77.0,100,29.97,10.0,SSE,4.6,-,N/A,,Scattered Clouds,160,2012-10-03 00:55:00
9:15 PM,77.0,77.0,100,29.97,10.0,South,3.5,-,N/A,,Scattered Clouds,170,2012-10-03 01:15:00
9:35 PM,77.0,77.0,100,29.98,10.0,South,3.5,-,N/A,,Scattered Clouds,180,2012-10-03 01:35:00
9:55 PM,77.0,77.0,100,29.98,10.0,South,4.6,-,N/A,,Overcast,180,2012-10-03 01:55:00
10:15 PM,77.0,77.0,100,29.99,10.0,SSE,4.6,-,N/A,,Scattered Clouds,160,2012-10-03 02:15:00
10:35 PM,77.0,77.0,100,30.00,10.0,South,4.6,-,N/A,,Clear,170,2012-10-03 02:35:00
10:55 PM,78.8,78.8,100,30.00,10.0,South,4.6,-,N/A,Rain,Light Rain,170,2012-10-03 02:55:00
11:15 PM,77.0,77.0,100,30.01,10.0,South,6.9,-,N/A,Rain,Light Rain,170,2012-10-03 03:15:00
11:35 PM,77.0,77.0,100,30.01,10.0,South,8.1,-,N/A,,Mostly Cloudy,180,2012-10-03 03:35:00
11:55 PM,77.0,77.0,100,30.02,10.0,South,6.9,-,N/A,,Scattered Clouds,180,2012-10-03 03:55:00